RH
39 41 38 32 33 34 33 35 31 26 24 23 21 20 20 20 23 24 26 23 24 33 36 56 52 48 43 34 27 25 20 12 9 10 7 22 62 67 33 20 22 12 5 5 5
42 41 38 40 43 42 42 41 30 26 28 26 23 21 21 22 21 29 30 26 24 29 52 71 65 59 50 41 33 27 22 15 14 14 10 8 32 65 55 26 22 21 11 5 5
40 42 44 42 43 43 44 44 40 34 34 34 29 25 26 26 25 27 28 28 32 43 68 79 76 68 57 49 38 32 25 21 18 19 15 10 9 52 60 48 27 24 23 11 5
47 46 44 43 42 41 41 41 41 38 37 35 30 29 32 33 43 27 26 42 61 77 84 84 82 74 67 60 48 40 32 27 25 22 18 12 8 9 30 54 66 36 26 19 6
50 47 43 37 37 36 39 38 40 41 42 42 38 34 34 44 43 55 38 42 85 97 94 92 89 84 77 70 60 50 40 33 30 28 21 17 12 8 11 40 78 66 36 23 13
44 44 38 35 34 34 34 35 36 37 41 41 36 34 30 43 41 67 98 94 88 91 94 95 97 95 84 81 73 59 48 38 34 32 30 20 16 12 8 19 75 83 54 29 20
47 44 38 38 36 36 33 31 31 30 31 37 35 30 22 60 72 99 98 100 94 97 94 96 98 92 83 86 85 70 58 51 38 34 31 30 20 13 11 10 42 86 83 46 28
46 40 41 39 39 38 35 34 33 31 31 32 30 25 22 53 92 100 99 97 96 95 93 97 94 94 87 94 94 84 71 54 40 38 33 39 22 17 15 12 17 45 83 70 39
41 42 44 41 40 42 37 36 32 28 30 25 24 23 23 46 88 100 97 99 98 98 92 94 92 83 92 94 100 97 76 63 48 47 46 60 27 27 20 15 13 27 56 74 70
41 42 46 44 42 43 37 34 29 30 24 23 17 23 40 69 100 100 100 97 100 96 94 93 88 70 96 100 88 100 100 90 60 63 57 46 30 31 27 20 13 14 30 60 77
43 47 44 46 41 41 35 33 32 26 22 19 17 22 39 59 100 100 100 96 95 96 95 91 76 69 100 100 100 99 100 95 82 68 87 79 37 34 31 26 18 13 14 34 59
46 47 46 45 41 37 34 32 29 25 18 16 15 15 25 79 85 96 100 98 99 100 97 93 73 100 99 96 99 98 96 73 75 87 83 65 48 37 32 25 23 16 16 18 28
48 48 46 43 39 35 31 27 26 20 15 12 15 24 39 67 94 93 100 96 94 94 89 85 86 95 96 98 100 100 99 74 89 95 78 73 48 46 32 28 24 22 14 20 26
50 46 45 40 36 35 30 27 23 16 14 17 32 66 91 100 100 100 94 99 95 86 74 70 90 97 95 85 100 88 100 100 100 99 92 80 49 45 35 29 28 21 16 14 28
48 42 44 40 38 37 29 26 20 17 17 61 84 100 100 100 100 99 98 90 92 75 70 63 74 75 69 90 100 69 100 100 99 100 100 89 85 39 37 31 23 19 15 12 16
50 43 41 39 38 34 30 26 19 20 27 51 99 100 100 100 100 91 86 90 89 80 70 60 57 53 51 52 57 61 84 97 100 100 100 75 68 40 40 28 21 14 12 9 10
53 46 44 39 39 34 31 22 16 28 63 66 99 100 100 100 97 97 100 100 94 81 64 49 39 29 24 23 22 36 32 47 69 97 76 74 97 41 37 33 22 14 11 9 7
49 47 46 44 37 34 29 18 17 45 80 82 100 100 94 97 89 90 94 94 100 77 58 46 36 28 22 17 14 18 26 26 29 44 56 66 71 49 41 44 31 26 27 13 8
46 45 44 40 34 34 24 13 21 36 68 99 100 100 100 99 85 80 86 97 98 83 56 42 41 32 22 30 32 17 24 23 28 26 34 54 54 45 53 38 34 30 40 19 13
45 46 43 37 37 32 20 15 26 55 52 74 100 100 100 98 78 66 49 94 100 95 86 59 44 39 24 83 78 83 87 88 81 62 34 27 36 36 43 41 43 37 27 23 14
47 46 48 45 40 25 15 13 40 72 69 64 100 100 87 96 76 82 63 89 81 72 60 63 54 38 30 95 89 97 94 99 100 100 57 34 24 28 33 41 36 56 42 30 16
49 52 51 47 37 24 13 13 35 75 70 92 81 100 90 85 74 84 73 64 69 57 59 72 70 52 36 91 86 99 100 100 100 88 100 99 25 21 49 84 54 23 38 38 71
51 53 51 48 32 21 13 13 39 77 85 83 100 100 98 79 74 82 88 72 59 59 95 83 57 38 44 95 100 100 100 100 100 90 93 99 31 37 100 100 93 43 57 42 50
61 58 50 44 29 20 10 12 44 96 93 78 98 100 99 91 84 90 89 78 67 94 84 63 35 27 42 73 100 100 100 100 99 100 94 71 92 69 100 98 84 63 81 73 42
67 62 52 43 24 16 8 32 98 100 100 95 69 100 100 86 100 97 89 93 100 86 67 48 27 29 30 61 83 98 100 100 99 89 53 67 63 53 85 100 79 82 71 62 58
73 67 56 40 33 13 9 28 71 100 100 100 95 84 98 97 82 75 56 52 46 53 38 37 41 29 30 66 67 66 100 100 95 69 71 59 64 41 74 100 98 100 100 82 67
74 66 58 38 29 13 11 11 28 95 100 100 100 100 94 100 96 73 60 48 60 57 56 54 52 28 30 62 60 52 98 78 84 70 60 69 66 90 98 100 99 100 98 82 87
Wind_Speed
31 33 33 33 35 39 38 42 41 41 43 45 46 44 46 48 51 49 50 54 55 59 61 53 50 49 54 56 57 57 59 54 48 43 41 40 49 49 48 44 40 37 41 36 35
35 35 36 38 40 40 41 44 43 45 47 48 49 50 52 50 54 56 56 56 57 65 60 51 49 51 54 55 61 63 59 52 48 45 42 42 50 52 53 49 44 42 42 40 35
34 38 39 39 41 43 44 43 46 50 52 55 56 57 58 56 55 55 58 60 66 66 60 49 49 51 53 56 61 63 58 55 52 50 49 46 50 52 55 51 48 46 42 41 40
41 41 45 46 44 46 45 48 50 50 54 60 62 62 59 61 60 56 58 66 65 62 55 47 47 51 51 55 59 65 57 61 54 53 52 49 51 53 54 52 48 49 47 44 43
42 45 48 50 51 49 51 53 53 56 60 60 65 64 61 61 62 68 67 69 60 49 44 46 47 52 54 55 62 62 60 65 60 55 53 55 51 54 52 52 50 50 51 46 43
45 47 49 51 53 53 54 57 58 60 63 63 67 64 62 62 64 67 60 56 54 45 39 42 47 52 53 54 60 59 65 67 64 58 55 55 53 57 52 52 50 52 56 51 43
45 48 51 53 56 59 59 60 62 65 67 67 64 68 63 57 65 62 59 50 45 41 34 40 47 50 51 52 57 60 65 65 66 61 57 57 63 57 50 52 54 53 58 53 44
48 50 53 56 62 63 62 65 66 67 67 67 68 59 57 61 63 57 49 46 40 31 30 35 41 50 51 51 54 58 64 67 58 58 54 60 63 54 53 54 55 54 56 56 47
51 55 58 61 66 67 66 65 68 69 69 66 59 63 61 66 60 49 47 41 39 37 31 30 35 39 46 49 54 57 60 61 56 59 60 55 60 57 57 55 56 55 53 56 49
55 59 62 65 70 68 67 69 71 74 69 65 66 63 58 60 56 54 47 48 44 37 26 27 31 34 44 49 51 56 58 59 61 53 60 60 60 61 61 57 54 55 55 56 53
60 64 65 68 72 70 71 71 76 72 71 65 59 57 66 65 53 50 50 46 36 28 23 25 27 30 38 43 47 52 45 56 56 56 52 52 59 60 63 59 56 54 54 54 54
64 67 68 71 72 71 71 77 77 72 76 62 57 55 60 53 55 49 42 37 29 22 22 23 21 28 37 41 45 50 53 57 56 53 52 54 57 64 62 63 60 57 54 55 54
67 70 71 73 76 75 78 83 81 70 74 72 56 52 53 49 46 44 38 30 24 19 20 23 22 26 30 37 41 44 49 50 52 46 53 53 63 62 60 64 63 61 55 55 55
70 71 73 77 80 79 83 87 85 65 67 65 46 40 45 45 43 35 29 25 22 22 22 23 27 30 30 34 41 41 39 49 51 53 53 49 64 61 60 59 64 63 62 56 56
70 73 77 80 81 81 85 86 83 66 63 45 41 44 44 37 34 31 26 23 24 25 26 25 29 32 32 38 41 36 40 47 52 58 61 54 56 64 58 60 64 62 61 59 57
71 75 77 81 82 82 84 86 85 65 42 42 40 44 45 36 30 25 23 22 25 27 28 29 31 33 35 38 40 42 45 47 50 53 63 63 59 68 61 58 62 61 60 60 56
74 78 78 82 81 84 86 85 80 54 46 35 35 40 35 32 24 21 20 22 24 28 29 29 27 32 34 39 39 45 47 50 53 56 61 54 64 68 57 55 57 58 59 58 55
72 76 78 81 85 88 88 85 69 52 43 38 32 36 33 29 25 18 18 23 29 31 30 32 27 30 33 38 41 48 52 54 55 54 53 56 63 66 55 50 52 52 55 56 52
73 76 81 84 88 89 88 79 64 50 43 38 36 30 32 30 30 25 21 23 28 30 32 29 30 32 36 30 36 40 46 46 55 56 60 55 55 53 60 56 51 53 47 56 55
76 79 82 87 87 87 84 72 55 44 40 38 34 31 28 33 24 19 20 27 30 30 28 32 38 35 29 26 22 30 25 34 41 51 58 59 53 51 51 51 47 45 53 49 52
78 79 81 84 85 83 76 67 51 35 33 26 22 27 25 26 26 30 27 20 25 23 27 34 39 31 33 20 24 27 26 32 30 39 44 49 58 43 45 45 55 46 42 49 52
79 79 79 82 82 82 76 68 51 34 36 33 25 24 28 30 34 33 28 21 23 25 30 33 35 40 24 21 22 31 23 26 37 36 35 20 41 41 43 41 45 56 50 46 46
79 78 78 80 81 80 76 62 49 32 33 29 31 29 32 32 30 25 23 23 25 27 29 29 31 32 21 20 20 26 32 26 40 40 49 37 25 44 39 37 35 47 46 50 53
76 79 79 80 78 79 73 59 49 39 38 30 27 35 32 31 29 25 25 28 27 23 23 24 23 25 25 24 26 20 28 24 23 32 41 39 33 43 44 33 39 40 41 51 59
76 77 79 79 75 76 63 55 47 46 43 37 32 37 35 30 28 29 25 24 25 23 20 22 29 27 23 27 30 18 14 13 24 23 45 44 41 41 46 39 41 42 44 47 48
74 76 79 79 82 73 56 48 47 49 47 39 35 36 35 30 36 28 15 13 14 17 19 23 28 32 18 23 29 25 9 15 20 32 37 39 44 51 59 41 49 45 40 39 42
74 76 80 79 80 71 60 48 44 47 43 42 33 34 33 32 28 18 17 16 17 16 23 26 25 30 18 19 28 27 16 13 14 31 37 45 48 40 55 40 20 25 48 41 46
Wind_Direction
318 318 319 320 319 324 321 322 316 314 315 314 311 307 303 292 285 280 279 276 280 280 281 274 265 257 254 252 249 247 248 250 249 247 247 242 243 240 240 238 240 241 242 236 238
323 324 324 321 319 318 315 316 313 313 315 315 311 309 302 293 287 286 280 276 275 276 276 273 265 253 252 248 247 245 247 253 245 242 242 236 241 240 237 236 237 237 241 242 239
328 325 322 321 316 316 314 313 311 310 310 311 310 307 302 298 291 286 277 275 274 275 278 273 262 255 253 248 247 248 250 247 239 235 237 234 235 239 240 237 236 239 238 240 242
329 328 327 325 323 319 316 314 312 310 309 309 309 306 303 298 294 283 275 274 278 280 278 269 260 255 252 248 246 247 246 246 240 235 234 234 234 238 238 238 237 239 239 238 240
327 327 328 329 326 324 321 320 317 314 313 309 307 306 304 294 289 288 282 278 283 284 275 266 258 252 250 246 243 245 244 245 242 236 232 233 232 234 235 233 236 239 242 239 239
327 328 332 330 330 327 324 322 319 315 314 312 309 306 303 294 289 288 290 292 292 288 271 259 255 255 250 248 246 244 243 241 242 238 232 232 231 234 231 231 230 234 239 237 236
326 327 328 332 332 329 326 323 321 321 316 312 308 306 310 296 289 291 295 296 293 286 273 260 251 250 250 249 246 242 241 242 240 239 235 232 229 229 229 230 227 229 238 238 235
325 326 328 329 331 329 326 324 322 320 319 315 310 305 302 290 292 296 300 298 293 285 284 265 253 251 252 249 245 244 242 241 235 239 234 237 230 229 232 228 228 228 236 238 233
325 326 328 329 329 327 325 323 321 320 321 316 310 304 297 289 291 297 302 296 291 291 284 271 260 254 251 249 244 242 241 240 235 237 237 236 228 226 231 229 225 228 230 236 233
327 327 328 331 329 325 325 325 325 323 323 315 315 307 295 290 291 294 298 294 297 295 281 265 261 255 250 246 246 242 243 241 237 236 238 235 226 225 228 229 226 225 225 233 230
327 327 330 332 328 327 328 327 325 325 323 319 312 297 292 292 297 297 292 298 297 293 280 261 257 257 259 254 245 244 245 241 238 243 239 240 229 229 228 225 227 225 223 227 232
327 328 331 331 330 329 328 328 328 328 324 319 308 301 290 292 297 297 298 298 296 286 268 264 263 256 254 254 250 246 244 239 234 238 243 239 234 232 226 223 223 223 222 223 229
327 328 329 331 331 331 332 330 331 329 326 325 315 302 298 298 298 299 297 298 293 282 270 265 264 258 258 260 258 251 246 241 241 238 239 239 231 236 232 226 221 221 217 219 222
327 328 329 330 330 333 333 334 331 333 319 322 313 304 308 302 303 303 297 292 280 267 261 260 248 251 253 257 258 252 250 242 237 238 236 236 237 230 228 227 229 219 219 218 218
327 330 331 330 334 335 334 334 333 333 322 318 317 310 309 298 298 305 297 287 272 262 253 256 251 250 247 250 257 257 252 246 243 242 236 230 241 224 227 222 223 222 221 219 218
329 330 331 332 335 335 334 334 336 333 328 315 311 312 306 300 307 307 294 273 260 257 259 249 251 253 252 251 249 249 252 250 248 247 244 231 236 229 226 221 220 221 221 220 219
330 330 333 334 335 335 334 339 336 333 333 321 310 310 306 309 308 306 291 270 263 263 258 254 255 260 265 259 248 245 247 248 248 247 245 238 238 232 226 224 222 222 221 218 218
329 330 334 336 336 338 338 338 338 334 313 307 312 312 309 311 318 307 287 281 266 261 261 268 257 278 296 285 258 243 242 241 247 246 246 245 246 227 224 223 220 220 221 218 213
328 331 335 336 338 339 338 338 336 329 315 300 301 300 307 312 315 307 296 281 270 273 274 278 282 290 310 279 257 233 237 238 246 241 243 244 246 225 224 222 222 220 218 219 219
332 334 336 338 339 338 337 337 329 324 314 300 297 300 302 307 310 310 306 285 280 277 276 283 288 289 308 272 252 239 226 228 235 242 240 241 238 227 223 224 222 224 223 222 224
334 336 339 338 338 338 337 336 331 326 320 308 284 301 301 297 300 312 311 288 278 276 285 280 288 301 304 259 241 214 226 228 241 247 243 242 238 230 226 226 228 223 226 225 227
336 337 337 337 338 338 339 337 330 319 321 294 288 287 290 294 299 301 302 288 277 287 282 283 294 302 294 244 237 224 226 261 234 232 223 247 234 218 217 223 227 226 228 216 222
336 337 336 335 339 339 340 334 328 321 323 304 289 286 285 296 305 300 286 283 289 282 284 291 298 304 292 247 219 244 235 252 207 222 215 227 191 197 211 223 219 208 215 217 212
336 335 334 337 338 339 340 334 329 320 317 308 288 288 288 302 306 291 293 302 294 279 287 289 299 307 289 260 231 227 241 250 247 225 225 212 223 194 205 202 207 207 213 205 214
335 335 334 339 341 341 337 332 318 310 314 320 298 294 297 311 296 291 297 296 283 287 289 292 320 307 281 283 254 235 232 245 248 231 223 219 227 213 200 195 207 206 210 202 204
333 333 332 338 339 341 334 328 308 303 306 312 305 290 300 304 303 300 288 280 278 282 292 310 315 322 267 275 251 229 253 243 247 245 229 211 220 215 207 181 197 198 196 197 193
332 331 332 340 339 339 338 328 317 304 302 308 303 302 300 297 283 293 282 279 291 291 293 294 310 321 285 266 250 224 251 241 246 237 237 226 220 227 216 197 176 183 202 199 195